カタログに戻る

STARLINK-34628

運用中通信SSO
NORAD 64864·PAYLOAD·🇺🇸 United States

打ち上げ Jul 19, 2025 から Vandenberg Space Force Base

Loading…

次のパス (今後24時間)

TLE

最新Source: CelesTrak SupGP

元期: Sep 15, 2026, 02:22 UTC

1 64864C 25152Y   26258.09909722  .00006683  00000+0  20747-3 0  2587
2 64864  97.2843 108.6959 0001922  91.8090 265.4453 15.33433326    15

AllMySatでSTARLINK-34628をリアルタイム追跡

Download on the App Store